TimeEST,TemperatureF,Dew PointF,Humidity,Sea Level PressureIn,VisibilityMPH,Wind Direction,Wind SpeedMPH,Gust SpeedMPH,PrecipitationIn,Events,Conditions,WindDirDegrees,DateUTC
12:00 AM,-32.8,-41.8,62,29.70,15.0,NNW,3.5,-,N/A,,Partly Cloudy,330,2013-01-21 05:00:00
1:00 AM,-34,-43,41,29.72,15,Calm,Calm,,,Snow,Snow,,2013-01-21 06:00:00
1:00 AM,-34.6,-43.6,61,29.72,15.0,Calm,Calm,-,N/A,,Partly Cloudy,0,2013-01-21 06:00:00
2:00 AM,-31.0,-38.2,68,29.73,15.0,ENE,4.6,-,N/A,,Partly Cloudy,60,2013-01-21 07:00:00
3:00 AM,-34.6,-40.0,75,29.73,15.0,North,4.6,-,N/A,,Partly Cloudy,350,2013-01-21 08:00:00
4:00 AM,-32.8,-38.2,75,29.74,15.0,Calm,Calm,-,N/A,,Partly Cloudy,0,2013-01-21 09:00:00
5:00 AM,-34.6,-43.6,61,29.75,15.0,Calm,Calm,-,N/A,,Partly Cloudy,0,2013-01-21 10:00:00
6:00 AM,-32.8,-41.8,62,29.77,15.0,Calm,Calm,-,N/A,,Clear,0,2013-01-21 11:00:00
7:00 AM,-33,-42,42,29.77,15,Calm,Calm,,,Snow,Snow,,2013-01-21 12:00:00
8:00 AM,-32.8,-41.8,62,29.80,15.0,Calm,Calm,-,N/A,,Clear,0,2013-01-21 13:00:00
9:00 AM,-34.6,-41.8,68,29.80,15.0,Calm,Calm,-,N/A,,Partly Cloudy,0,2013-01-21 14:00:00
10:00 AM,-36.4,-43.6,67,29.82,15.0,Calm,Calm,-,N/A,,Partly Cloudy,0,2013-01-21 15:00:00
11:00 AM,-34.6,-43.6,61,29.85,15.0,North,2.3,-,N/A,,Partly Cloudy,350,2013-01-21 16:00:00
12:00 PM,-32.8,-43.6,56,29.86,15.0,Calm,Calm,-,N/A,,Partly Cloudy,0,2013-01-21 17:00:00
1:00 PM,-35,-44,43,29.87,15,NNW,4.6,,,Snow,Snow,330,2013-01-21 18:00:00
1:00 PM,-34.6,-43.6,61,29.87,15.0,NNW,4.6,-,N/A,,Partly Cloudy,330,2013-01-21 18:00:00
2:00 PM,-32.8,-41.8,62,29.88,15.0,NNW,5.8,-,N/A,,Partly Cloudy,340,2013-01-21 19:00:00
3:00 PM,-32.8,-41.8,62,29.90,15.0,North,3.5,-,N/A,,Partly Cloudy,360,2013-01-21 20:00:00
4:00 PM,-36.4,-43.6,67,29.91,15.0,NNW,3.5,-,N/A,,Clear,330,2013-01-21 21:00:00
5:00 PM,-34.6,-43.6,61,29.94,15.0,NNE,3.5,-,N/A,,Clear,20,2013-01-21 22:00:00
6:00 PM,-34.6,-43.6,61,29.96,15.0,NNW,9.2,-,N/A,,Clear,340,2013-01-21 23:00:00
7:00 PM,-33,-42,42,29.97,15,North,11.5,,,Snow,Snow,350,2013-01-22 00:00:00
7:00 PM,-32.8,-41.8,62,29.97,15.0,North,11.5,-,N/A,,Clear,350,2013-01-22 00:00:00
8:00 PM,-34.6,-43.6,61,29.98,15.0,NNW,3.5,-,N/A,,Clear,340,2013-01-22 01:00:00
9:00 PM,-36.4,-45.4,61,29.98,15.0,NNW,8.1,-,N/A,,Clear,330,2013-01-22 02:00:00
10:00 PM,-34.6,-41.8,68,29.98,15.0,NNW,9.2,-,N/A,,Clear,340,2013-01-22 03:00:00
11:00 PM,-34.6,-45.4,55,29.97,15.0,NNW,10.4,-,N/A,,Clear,330,2013-01-22 04:00:00